Regional Weather Roundup
Issued by NWS

Home | Current Version | Previous Version | Text Only | Print | Product List | Glossary On
Versions: 1 2 3 4 5 6 7 8 9 10 11 12 13 14 15 16 17 18 19 20 21 22 23 24 25 26 27 28 29 30 31 32 33 34 35 36 37 38 39 40 41 42 43 44 45 46 47 48 49 50
000
ASUS43 KOAX 151310
RWRNE

WEATHER ROUNDUP FOR NEBRASKA
NATIONAL WEATHER SERVICE OMAHA NE
700 AM CST FRI DEC 15 2017

NOTES: SATELLITE DATA IS BEING USED TO AUGMENT CLOUD COVER ABOVE
       12000 FEET.
       "FAIR" INDICATES FEW OR NO CLOUDS BELOW 12,000 FEET WITH NO
       SIGNIFICANT WEATHER AND/OR OBSTRUCTIONS TO VISIBILITY.


NEZ001>004-019>022-054>056-151400-
NEBRASKA PANHANDLE

CITY           SKY/WX    TMP DP  RH WIND       PRES   REMARKS
SCOTTSBLUFF    CLEAR     11   7  84 NW6       30.00F WCI   1
ALLIANCE       CLOUDY    18  14  84 W10       29.95F WCI   6
CHADRON        CLOUDY    16  11  80 SW10      29.95F WCI   4
GORDON         FAIR      23  15  74 W9        29.90F WCI  13
KIMBALL        CLOUDY    23  13  66 W12       30.00F WCI  11
SIDNEY         CLOUDY    19  11  70 W10       30.01F WCI   7
$$

NEZ057>060-069>072-079>082-151400-
SOUTHWEST NEBRASKA

CITY           SKY/WX    TMP DP  RH WIND       PRES   REMARKS
NORTH PLATTE   CLOUDY    18  14  84 W7        30.02F WCI   9
IMPERIAL       CLOUDY    20  14  77 W14       30.04F WCI   7
LEXINGTON      CLOUDY    21  17  84 SW3       30.04F
MCCOOK         CLOUDY    17  13  84 W9        30.07F WCI   6
OGALLALA       CLOUDY    18  14  83 W3        30.02F
$$

NEZ005>010-023>029-035>040-094-151400-
NORTH CENTRAL NEBRASKA

CITY           SKY/WX    TMP DP  RH WIND       PRES   REMARKS
VALENTINE      CLOUDY    24  19  81 SW8       29.93F WCI  15
AINSWORTH      CLOUDY    24  21  87 SW6       29.94S WCI  17
BROKEN BOW     CLOUDY    21  16  81 W8        30.00F WCI  11
O`NEILL        CLOUDY    25  23  91 SW6       29.96F WCI  18
ORD            CLOUDY    24  20  84 SW12      29.99F WCI  13
THEDFORD       PTCLDY    25  21  83 W6        29.97F WCI  18
$$

NEZ041-046>049-061>064-073>077-083>087-151400-
SOUTH CENTRAL NEBRASKA

CITY           SKY/WX    TMP DP  RH WIND       PRES   REMARKS
GRAND ISLAND   CLOUDY    25  22  88 SW10      30.06F WCI  15
AURORA         CLOUDY    25  22  89 W9        30.07F WCI  15
HASTINGS       CLOUDY    21  18  88 SW7       30.07F WCI  12
HEBRON         CLEAR     25  22  89 SW8       30.12F WCI  16
HOLDREGE       CLOUDY    20  18  93 SW8       30.07F WCI  10
KEARNEY        CLOUDY    21  18  88 SW8       30.06F WCI  11
YORK           CLEAR     25  23  93 SW12      30.07F WCI  14
$$

NEZ011>018-030>034-042>045-151400-
NORTHEAST NEBRASKA

CITY           SKY/WX    TMP DP  RH WIND       PRES   REMARKS
NORFOLK        CLOUDY    27  23  85 SW10      30.00F WCI  17
ALBION         CLEAR     27  23  85 W3        30.01F
BLAIR          CLOUDY    31  25  78 SW10      30.04S WCI  23
COLUMBUS       CLEAR     27  23  85 SW9       30.05F WCI  18
FREMONT        CLOUDY    32  24  74 SW12      30.05F WCI  23
TEKAMAH        CLOUDY    32  23  69 W14       30.03S WCI  22
WAYNE          PTCLDY    30  28  90 SW9       30.00S WCI  22
$$

NEZ050>053-065>068-078-088>093-151400-
SOUTHEAST NEBRASKA

CITY           SKY/WX    TMP DP  RH WIND       PRES   REMARKS
LINCOLN        CLEAR     28  22  78 W9        30.10F WCI  19
OMAHA EPPLEY   CLOUDY    34  23  64 SW12      30.06S WCI  25
BEATRICE       CLEAR     25  22  85 SW6       30.12F WCI  18
FALLS CITY     CLOUDY    32  27  81 W10       30.12S WCI  24
NEBRASKA CITY  CLOUDY    31  30  94 W10       30.09F WCI  22
PLATTSMOUTH    CLOUDY    33  27  80 SW9       30.07F WCI  25
$$

NEZ044-045-051>053-067-151400-
OMAHA AREA

CITY           SKY/WX    TMP DP  RH WIND       PRES   REMARKS
OMAHA EPPLEY   CLOUDY    34  23  64 SW12      30.06S WCI  25
BLAIR          CLOUDY    31  25  78 SW10      30.04S WCI  23
FREMONT        CLOUDY    32  24  74 SW12      30.05F WCI  23
MILLARD        CLOUDY    34  26  75 W8        30.07F WCI  27
OFFUTT AFB     CLOUDY    33  25  71 SW12      30.06F WCI  24
PLATTSMOUTH    CLOUDY    33  27  80 SW9       30.07F WCI  25
WAHOO          FAIR      31  24  75 W12       30.07F WCI  21
$$




USA.gov is the U.S. government's official web portal to all federal, state and local government web resources and services.